Time,TemperatureF,DewpointF,PressureIn,WindDirection,WindDirectionDegrees,WindSpeedMPH,WindSpeedGustMPH,Humidity,HourlyPrecipIn,Conditions,Clouds,dailyrainin,SoftwareType,DateUTC
2013-07-29 00:07:00,81.5,70.3,29.82,ESE,112,3.2,-999.0,69,-99.99,,,0.00,Acu-Link.com,2013-07-29 05:07:00,
2013-07-29 00:22:00,81.0,70.7,29.82,NNE,22,3.7,-999.0,71,-99.99,,,0.00,Acu-Link.com,2013-07-29 05:22:00,
2013-07-29 00:37:00,80.8,70.9,29.82,ESE,112,3.2,-999.0,72,-99.99,,,0.00,Acu-Link.com,2013-07-29 05:37:00,
2013-07-29 00:52:00,80.4,71.3,29.82,ESE,112,4.7,-999.0,74,-99.99,,,0.00,Acu-Link.com,2013-07-29 05:52:00,
2013-07-29 01:08:00,80.1,72.2,29.82,SSE,157,4.7,-999.0,77,-99.99,,,0.00,Acu-Link.com,2013-07-29 06:08:00,
2013-07-29 01:23:00,79.7,72.2,29.82,ESE,112,4.2,-999.0,78,-99.99,,,0.00,Acu-Link.com,2013-07-29 06:23:00,
2013-07-29 01:38:00,79.3,72.6,29.82,ESE,112,4.7,-999.0,80,-99.99,,,0.00,Acu-Link.com,2013-07-29 06:38:00,
2013-07-29 01:53:00,79.0,73.0,29.82,ENE,67,2.7,-999.0,82,-99.99,,,0.00,Acu-Link.com,2013-07-29 06:53:00,
2013-07-29 02:09:00,78.6,73.0,29.83,SE,135,2.2,-999.0,83,-99.99,,,0.00,Acu-Link.com,2013-07-29 07:09:00,
2013-07-29 02:24:00,78.6,73.3,29.83,ESE,112,3.7,-999.0,84,-99.99,,,0.00,Acu-Link.com,2013-07-29 07:24:00,
2013-07-29 02:39:00,78.8,73.5,29.83,SE,135,3.2,-999.0,84,-99.99,,,0.00,Acu-Link.com,2013-07-29 07:39:00,
2013-07-29 02:55:00,78.8,73.5,29.83,NNE,22,6.3,-999.0,84,-99.99,,,0.00,Acu-Link.com,2013-07-29 07:55:00,
2013-07-29 03:10:00,78.8,73.5,29.83,NW,315,2.2,-999.0,84,-99.99,,,0.00,Acu-Link.com,2013-07-29 08:10:00,
2013-07-29 03:25:00,78.6,73.3,29.83,South,180,3.7,-999.0,84,-99.99,,,0.00,Acu-Link.com,2013-07-29 08:25:00,
2013-07-29 03:40:00,78.6,73.3,29.83,South,180,2.7,-999.0,84,-99.99,,,0.00,Acu-Link.com,2013-07-29 08:40:00,
2013-07-29 03:55:00,78.6,73.3,29.83,ESE,112,3.2,-999.0,84,-99.99,,,0.00,Acu-Link.com,2013-07-29 08:55:00,
2013-07-29 04:10:00,78.6,73.7,29.84,East,90,1.7,-999.0,85,-99.99,,,0.00,Acu-Link.com,2013-07-29 09:10:00,
2013-07-29 04:26:00,78.6,73.7,29.85,West,270,4.2,-999.0,85,-99.99,,,0.00,Acu-Link.com,2013-07-29 09:26:00,
2013-07-29 04:41:00,78.6,73.7,29.84,East,90,5.8,-999.0,85,-99.99,,,0.00,Acu-Link.com,2013-07-29 09:41:00,
2013-07-29 04:56:00,78.4,73.5,29.84,WNW,292,3.7,-999.0,85,-99.99,,,0.00,Acu-Link.com,2013-07-29 09:56:00,
2013-07-29 05:12:00,78.1,73.6,29.84,NNE,22,3.7,-999.0,86,-99.99,,,0.00,Acu-Link.com,2013-07-29 10:12:00,
2013-07-29 05:27:00,77.7,73.2,29.84,SE,135,2.2,-999.0,86,-99.99,,,0.00,Acu-Link.com,2013-07-29 10:27:00,
2013-07-29 05:57:00,77.4,73.2,29.85,SE,135,1.7,-999.0,87,-99.99,,,0.00,Acu-Link.com,2013-07-29 10:57:00,
2013-07-29 06:13:00,77.2,73.0,29.85,SSW,202,6.3,-999.0,87,-99.99,,,0.00,Acu-Link.com,2013-07-29 11:13:00,
2013-07-29 06:28:00,77.2,73.0,29.84,SSE,157,2.7,-999.0,87,-99.99,,,0.00,Acu-Link.com,2013-07-29 11:28:00,
2013-07-29 06:43:00,76.8,72.6,29.85,ESE,112,2.7,-999.0,87,-99.99,,,0.00,Acu-Link.com,2013-07-29 11:43:00,
2013-07-29 06:58:00,76.6,72.8,29.85,WNW,292,1.7,-999.0,88,-99.99,,,0.00,Acu-Link.com,2013-07-29 11:58:00,
2013-07-29 07:14:00,76.6,72.8,29.86,ESE,112,1.7,-999.0,88,-99.99,,,0.00,Acu-Link.com,2013-07-29 12:14:00,
2013-07-29 07:44:00,77.5,72.6,29.87,SW,225,3.2,-999.0,85,-99.99,,,0.00,Acu-Link.com,2013-07-29 12:44:00,
2013-07-29 08:30:00,81.3,73.4,29.88,South,180,3.7,-999.0,77,-99.99,,,0.00,Acu-Link.com,2013-07-29 13:30:00,
2013-07-29 08:45:00,81.3,73.4,29.88,ESE,112,2.2,-999.0,77,-99.99,,,0.00,Acu-Link.com,2013-07-29 13:45:00,
2013-07-29 09:01:00,81.7,73.0,29.89,South,180,7.3,-999.0,75,-99.99,,,0.00,Acu-Link.com,2013-07-29 14:01:00,
2013-07-29 09:31:00,85.1,73.3,29.89,SW,225,4.7,-999.0,68,-99.99,,,0.00,Acu-Link.com,2013-07-29 14:31:00,
2013-07-29 09:46:00,87.3,73.6,29.89,WSW,247,6.8,-999.0,64,-99.99,,,0.00,Acu-Link.com,2013-07-29 14:46:00,
2013-07-29 10:01:00,86.2,72.1,29.89,SSE,157,3.7,-999.0,63,-99.99,,,0.00,Acu-Link.com,2013-07-29 15:01:00,
2013-07-29 11:02:00,87.6,72.5,29.89,SW,225,3.7,-999.0,61,-99.99,,,0.00,Acu-Link.com,2013-07-29 16:02:00,
2013-07-29 11:17:00,88.0,71.8,29.89,SSE,157,5.3,-999.0,59,-99.99,,,0.00,Acu-Link.com,2013-07-29 16:17:00,
2013-07-29 11:33:00,89.1,72.4,29.88,SSE,157,4.7,-999.0,58,-99.99,,,0.00,Acu-Link.com,2013-07-29 16:33:00,
2013-07-29 11:48:00,90.3,72.4,29.89,SSW,202,6.3,-999.0,56,-99.99,,,0.00,Acu-Link.com,2013-07-29 16:48:00,
2013-07-29 12:18:00,89.4,71.1,29.89,NE,45,4.2,-999.0,55,-99.99,,,0.00,Acu-Link.com,2013-07-29 17:18:00,
2013-07-29 12:33:00,91.9,71.1,29.89,NW,315,3.7,-999.0,51,-99.99,,,0.00,Acu-Link.com,2013-07-29 17:33:00,
2013-07-29 12:49:00,92.8,70.2,29.88,ESE,112,4.7,-999.0,48,-99.99,,,0.00,Acu-Link.com,2013-07-29 17:49:00,
2013-07-29 13:19:00,93.6,67.7,29.88,SW,225,3.7,-999.0,43,-99.99,,,0.00,Acu-Link.com,2013-07-29 18:19:00,
2013-07-29 13:34:00,94.6,67.9,29.87,South,180,6.3,-999.0,42,-99.99,,,0.00,Acu-Link.com,2013-07-29 18:34:00,
2013-07-29 13:50:00,95.9,67.6,29.87,SSW,202,4.2,-999.0,40,-99.99,,,0.00,Acu-Link.com,2013-07-29 18:50:00,
2013-07-29 14:20:00,95.9,66.9,29.86,ESE,112,7.8,-999.0,39,-99.99,,,0.00,Acu-Link.com,2013-07-29 19:20:00,
2013-07-29 14:51:00,96.4,64.2,29.84,ESE,112,6.3,-999.0,35,-99.99,,,0.00,Acu-Link.com,2013-07-29 19:51:00,
2013-07-29 15:21:00,97.7,65.4,29.85,ESE,112,5.3,-999.0,35,-99.99,,,0.00,Acu-Link.com,2013-07-29 20:21:00,
2013-07-29 15:36:00,97.5,65.2,29.85,NNE,22,8.3,-999.0,35,-99.99,,,0.00,Acu-Link.com,2013-07-29 20:36:00,
2013-07-29 15:52:00,97.9,65.5,29.84,SSW,202,5.8,-999.0,35,-99.99,,,0.00,Acu-Link.com,2013-07-29 20:52:00,
2013-07-29 16:22:00,99.3,65.9,29.83,East,90,6.8,-999.0,34,-99.99,,,0.00,Acu-Link.com,2013-07-29 21:22:00,
2013-07-29 16:38:00,98.1,64.9,29.82,East,90,7.3,-999.0,34,-99.99,,,0.00,Acu-Link.com,2013-07-29 21:38:00,
2013-07-29 16:53:00,98.6,62.7,29.83,ESE,112,4.2,-999.0,31,-99.99,,,0.00,Acu-Link.com,2013-07-29 21:53:00,
2013-07-29 17:23:00,97.9,63.8,29.82,South,180,4.7,-999.0,33,-99.99,,,0.00,Acu-Link.com,2013-07-29 22:23:00,
2013-07-29 18:08:00,97.2,61.5,29.81,ESE,112,4.2,-999.0,31,-99.99,,,0.00,Acu-Link.com,2013-07-29 23:08:00,
2013-07-29 18:23:00,97.0,62.2,29.81,ESE,112,3.7,-999.0,32,-99.99,,,0.00,Acu-Link.com,2013-07-29 23:23:00,
2013-07-29 18:39:00,96.6,62.7,29.82,SSE,157,2.7,-999.0,33,-99.99,,,0.00,Acu-Link.com,2013-07-29 23:39:00,
2013-07-29 18:54:00,98.2,63.2,29.81,ESE,112,3.2,-999.0,32,-99.99,,,0.00,Acu-Link.com,2013-07-29 23:54:00,
2013-07-29 19:09:00,98.2,64.1,29.81,SSW,202,6.8,-999.0,33,-99.99,,,0.00,Acu-Link.com,2013-07-30 00:09:00,
2013-07-29 19:55:00,92.8,64.2,29.81,ESE,112,3.7,-999.0,39,-99.99,,,0.00,Acu-Link.com,2013-07-30 00:55:00,
2013-07-29 20:10:00,91.2,64.2,29.82,ESE,112,4.7,-999.0,41,-99.99,,,0.00,Acu-Link.com,2013-07-30 01:10:00,
2013-07-29 20:26:00,90.1,63.9,29.83,ESE,112,3.7,-999.0,42,-99.99,,,0.00,Acu-Link.com,2013-07-30 01:26:00,
2013-07-29 20:41:00,89.1,63.6,29.84,NNE,22,4.2,-999.0,43,-99.99,,,0.00,Acu-Link.com,2013-07-30 01:41:00,
2013-07-29 20:56:00,88.3,63.6,29.86,SSE,157,3.2,-999.0,44,-99.99,,,0.00,Acu-Link.com,2013-07-30 01:56:00,
2013-07-29 21:11:00,87.6,63.0,29.86,SSW,202,4.2,-999.0,44,-99.99,,,0.00,Acu-Link.com,2013-07-30 02:11:00,
2013-07-29 21:42:00,85.8,63.2,29.87,ESE,112,2.7,-999.0,47,-99.99,,,0.00,Acu-Link.com,2013-07-30 02:42:00,
2013-07-29 21:57:00,85.1,63.2,29.88,ESE,112,3.2,-999.0,48,-99.99,,,0.00,Acu-Link.com,2013-07-30 02:57:00,
2013-07-29 22:12:00,84.6,63.3,29.89,ESE,112,4.2,-999.0,49,-99.99,,,0.00,Acu-Link.com,2013-07-30 03:12:00,
2013-07-29 22:43:00,83.8,65.4,29.90,SSE,157,4.7,-999.0,54,-99.99,,,0.00,Acu-Link.com,2013-07-30 03:43:00,
2013-07-29 23:13:00,82.4,67.6,29.90,ESE,112,4.7,-999.0,61,-99.99,,,0.00,Acu-Link.com,2013-07-30 04:13:00,
2013-07-29 23:29:00,81.9,69.0,29.90,NNW,337,4.2,-999.0,65,-99.99,,,0.00,Acu-Link.com,2013-07-30 04:29:00,
2013-07-29 23:44:00,81.3,69.3,29.91,North,0,4.2,-999.0,67,-99.99,,,0.00,Acu-Link.com,2013-07-30 04:44:00,
2013-07-29 23:59:00,80.8,69.7,29.91,SSE,157,3.2,-999.0,69,-99.99,,,0.00,Acu-Link.com,2013-07-30 04:59:00,